Location: Unspecified
(41.9031°N, 12.4386°E)
Time: 15:40:15
(UTC+02:00)

ISS - Visible Passes

Search period start: 22 October 2019 00:00
Search period end: 31 October 2019 23:00
Orbit: 411 x 421 km, 51.6° (Epoch: 22 October)

Date Brightness Start Highest point End Pass type
(mag) Time Alt. Az. Time Alt. Az. Time Alt. Az.
22 Oct -0.7 06:49:36 10° SSE 06:51:38 15° SE 06:53:39 10° E visible
24 Oct -2.4 06:47:44 10° SSW 06:50:55 40° SE 06:54:06 10° ENE visible
25 Oct -1.5 05:59:41 10° S 06:02:27 24° SE 06:05:12 10° E visible
26 Oct -0.9 05:13:48 14° SE 05:14:01 14° SE 05:15:50 10° E visible
26 Oct -3.8 06:47:00 10° WSW 06:50:21 73° NNW 06:53:43 10° NE visible
27 Oct -3.5 05:00:47 41° SSW 05:01:45 66° SE 05:05:06 10° ENE visible
28 Oct -1.4 04:14:38 24° E 04:14:38 24° E 04:16:21 10° ENE visible
28 Oct -2.8 05:47:33 14° W 05:49:58 33° NNW 05:53:03 10° NE visible
29 Oct -3.4 05:01:15 48° NNW 05:01:15 48° NNW 05:04:30 10° NE visible
30 Oct -1.1 04:14:50 19° NE 04:14:50 19° NE 04:15:55 10° NE visible
30 Oct -2.0 05:47:45 13° WNW 05:49:41 20° NNW 05:52:18 10° NE visible
31 Oct -2.2 05:01:14 25° N 05:01:14 25° N 05:03:44 10° NE visible
